This is the latest recevied weather packets stored in our database for station/object EW8324. If no packets are shown the sender has not sent any weather packets the latest 1 day(s).
| Time | Temp. | Humidity | Pressure | Rain* | Wind** | Luminosity | Snow |
|---|---|---|---|---|---|---|---|
| 1778024469 | 27.78° C | 77% | 1002.2 hPa | 0 mm | 0 m/s | 49 W/m² | - |
| 1778024226 | 27.78° C | 77% | 1002.2 hPa | 0 mm | 0 m/s | 65 W/m² | - |
| 1778023931 | 27.78° C | 77% | 1002.3 hPa | 0 mm | 0 m/s | 84 W/m² | - |
| 1778023565 | 27.78° C | 77% | 1002.3 hPa | 0 mm | 0.45 m/s, 279° | 79 W/m² | - |
| 1778023271 | 27.78° C | 76% | 1002.2 hPa | 0 mm | 0 m/s | 76 W/m² | - |
| 1778022965 | 28.33° C | 76% | 1002.3 hPa | 0 mm | 0 m/s | 53 W/m² | - |
| 1778022668 | 28.33° C | 76% | 1002.2 hPa | 0 mm | 0 m/s | 60 W/m² | - |
| 1778022366 | 28.33° C | 76% | 1002.4 hPa | 0 mm | 0 m/s | 88 W/m² | - |
| 1778022079 | 28.33° C | 75% | 1002.4 hPa | 0 mm | 0 m/s | 99 W/m² | - |
| 1778021764 | 28.33° C | 75% | 1002.4 hPa | 0 mm | 0 m/s | 90 W/m² | - |
| 1778021467 | 28.33° C | 74% | 1002.3 hPa | 0 mm | 0 m/s | 74 W/m² | - |
| 1778021159 | 28.89° C | 73% | 1002.2 hPa | 0 mm | 0 m/s | 99 W/m² | - |
| 1778020862 | 28.89° C | 72% | 1002.1 hPa | 0 mm | 0 m/s | 91 W/m² | - |
| 1778020564 | 28.89° C | 73% | 1002.3 hPa | 0 mm | 0 m/s | 128 W/m² | - |
| 1778020268 | 28.89° C | 73% | 1002.4 hPa | 0 mm | 0 m/s | 186 W/m² | - |
| 1778019966 | 28.89° C | 73% | 1002.3 hPa | 0 mm | 0 m/s | 162 W/m² | - |
| 1778019665 | 28.89° C | 73% | 1002.3 hPa | 0 mm | 0 m/s | 123 W/m² | - |
| 1778019369 | 28.89° C | 74% | 1002.3 hPa | 0 mm | 0 m/s | 188 W/m² | - |
| 1778019068 | 28.89° C | 74% | 1002.3 hPa | 0 mm | 0 m/s | 135 W/m² | - |
| 1778018764 | 28.89° C | 74% | 1002.3 hPa | 0 mm | 0 m/s | - | - |
| 1778018534 | 28.89° C | 72% | 1002.5 hPa | 0 mm | 0 m/s | 164 W/m² | - |
| 1778017563 | 29.44° C | 72% | 1002.6 hPa | 0 mm | 0 m/s | - | - |
| 1778016962 | 29.44° C | 72% | 1002.7 hPa | 0 mm | 0 m/s | - | - |
| 1778016661 | 29.44° C | 73% | 1002.8 hPa | 0 mm | 0 m/s | 197 W/m² | - |
| 1778016072 | 29.44° C | 73% | 1002.8 hPa | 0 mm | 0 m/s | - | - |
* Rain latest hour (hover to see other rain measurements)
** Current wind speed in m/s (hover to see current wind gust speed)